www.pogodaiklimat.ru

Погода и климат >> Архив погоды >> Россия >> Забайкальский край >> Петровский Завод


ПОГОДА в Петровском Заводе

  • Прогноз погоды в Петровском Заводе
  • Монитор погоды в Петровском Заводе

АРХИВ ПОГОДЫ в Петровском Заводе

Время (UTC), дата Ветер
(напр.,м/с)
 
Видим.   Явления Облачность Т
(С)
Тd
(С)
f
(%)
Тe
(С)
Тes
(С)
Комфортность P
(гПа)
Po
(гПа)
Тmin
(С)
Tmax
(С)
R
(мм)
R24
(мм)
S
(см)
06 12.07 СВ 3 20 км 5/5 600 м
[Cu med, cong]
+29.4 +10.7 31 +30 +36 жарко 1003.4 917.2
09 12.07 СВ 1 н/о н/о +25.9 +14.9 51 +29 +29 душно 1003.5 916.5
12 12.07 С 2
{16}
20 км туман поземный {гроза, ливн. осадки} 10/8 600 м
[Cb cap Ci sp]
+20.4 +15.5 73 +24 +24 комфорт 1006.3 917.5 +30.2 1
15 12.07 С 2 н/о н/о +15.5 +14.1 91 +15 +15 1008.6 918.1
18 12.07 штиль 0 н/о 3/0
[Ci sp]
+14.6 +13.4 93 +14 +14 1010.1 919.2
21 12.07 штиль 0 н/о н/о +12.4 +11.2 92 +12 +12 1011.3 919.5
00 13.07 СВ 1 20 км 1/1 1000 м
[Sc]
+17.6 +14.6 83 +19 +24 1010.0 920.0 +12.1
03 13.07 СВ 3 н/о н/о +24.0 +15.9 61 +27 +27 жарко 1007.3 919.5
06 13.07 С 4 10 км дым 4/4 1000 м
[Cu hum]
+27.7 +13.6 42 +30 +36 жарко 1004.6 918.0
09 13.07 С 5 н/о н/о +27.6 +12.7 40 +29 +29 жарко 1003.5 916.8
12 13.07 С 3
{11}
20 км ясно +23.9 +11.9 47 +26 +26 жарко 1005.0 917.2 +28.4
15 13.07 С 1 н/о н/о +17.8 +10.6 63 +19 +19 1008.3 918.4
18 13.07 СВ 1 н/о ясно +11.0 +8.1 82 +11 +11 1010.6 918.4
21 13.07 С 1 н/о н/о +7.7 +6.5 92 +7 +7 1011.7 918.3
00 14.07 СВ 1 20 км ясно +14.8 +9.5 71 +15 +21 1008.4 917.6 +7.4
03 14.07 В 1 н/о н/о +23.4 +8.8 39 +25 +25 комфорт 1004.4 916.4
06 14.07 Ю 1 20 км ясно +27.5 +6.5 26 +27 +45 жарко 1001.2 914.6
09 14.07 С 2 н/о н/о +28.9 +7.3 26 +28 +28 жарко 998.4 912.4
12 14.07 З 1 20 км 8/0
[Ci sp]
+23.9 +8.8 38 +25 +25 комфорт 999.8 912.4 +29.1
15 14.07 С 3 н/о н/о +15.6 +9.3 66 +15 +15 1002.9 912.8
18 14.07 С 2 н/о 1/0
[Ci sp]
+10.8 +7.5 80 +10 +10 1004.2 912.5
21 14.07 штиль 0 н/о н/о +8.6 +6.4 86 +8 +8 1004.6 912.2
00 15.07 СВ 2 20 км 8/0
[Ac As Cs]
+16.5 +9.3 62 +17 +20 1001.5 911.8 +8.1
03 15.07 Ю 1 н/о н/о +27.9 +10.8 34 +28 +28 жарко 996.8 910.8
06 15.07 ЮВ 3 20 км 5/1 1000 м
[Cu med, cong Cc]
+32.3 +10.3 26 +32 +42 жарко 994.3 909.6
09 15.07 В 4 н/о н/о +33.3 +11.6 27 +33 +33 жарко 992.4 908.2
12 15.07 С 3
{14}
20 км гроза, ливневой дождь 10/10 600 м
[Cb cap]
+21.9 +13.7 60 +25 +25 комфорт 998.7 910.9 +33.9 0.0
15 15.07 СВ 2
{15}
н/о н/о +18.3 +15.8 85 +19 +19 1002.0 913.0
18 15.07 С 2 н/о {гроза, ливн. осадки} 10/10 600 м
[Cb cap]
+16.9 +15.4 91 +17 +17 1003.3 913.7
21 15.07 С 3 н/о н/о +16.0 +14.7 92 +15 +15 1003.4 913.6
00 16.07 С 2 20 км 8/1 600 м
[Cb cap Cc]
+20.0 +15.5 75 +23 +27 комфорт 1002.6 914.0 +15.5 3
03 16.07 В 2 н/о н/о +24.8 +14.2 52 +27 +27 жарко 1001.5 914.3
06 16.07 С 2 20 км 6/6 1000 м
[Cu Sc]
+27.4 +14.2 44 +30 +36 жарко 1000.2 913.9
09 16.07 СВ 2 н/о н/о +29.8 +12.8 35 +31 +31 жарко 998.9 913.3
12 16.07 СВ 1
{13}
20 км гроза, ливневой дождь 9/9 600 м
[Cb cap]
+19.5 +17.0 85 +23 +23 комфорт 1003.4 914.7 +30.2 14
15 16.07 штиль 0 н/о н/о +17.8 +16.3 91 +18 +18 1005.0 915.6
18 16.07 штиль 0 н/о туман местами {ливн. осадки} ясно +16.1 +15.2 94 +16 +16 1005.9 915.9
21 16.07 С 1 н/о н/о +14.6 +13.8 95 +15 +15 1006.3 915.8
00 17.07 Ю 1 20 км в посл. час туман 8/8 600 м
[Cb cap Ci sp]
+18.2 +16.7 91 +20 +21 1005.4 916.1 +14.7 0.3
03 17.07 Ю 1 н/о н/о +25.9 +17.5 60 +30 +30 душно 1002.7 915.8
06 17.07 Ю 4 20 км в посл. час гроза {ливн. осадки} 9/9 600 м
[Cb cap]
+23.3 +17.9 72 +29 +30 душно 1002.9 915.4
12 17.07 В 2
{10}
20 км в посл. час ливневой дождь {гроза} 10/10 600 м
[Cb cap]
+19.4 +17.4 88 +22 +22 комфорт 1004.8 915.9 +27.6 3
18 17.07 СВ 2 н/о 10/10 600 м
[Cb cap]
+16.6 +15.9 96 +17 +17 1006.2 916.4
00 18.07 ЮВ 1 500 м туман ?/? +15.7 +15.0 96 +16 +16 1006.8 916.6 +15.5
06 18.07 Ю 1 20 км 10/4 600 м
[Cb cap Cs]
+25.8 +17.4 60 +30 +38 душно 1001.4 914.6
12 18.07 СВ 2 20 км в посл. час гроза 10/10 600 м
[Cb cap]
+22.2 +18.0 77 +27 +27 душно 1001.7 913.9 +28.5 0.0
18 18.07 СВ 2 н/о 4/0
[Cc]
+15.2 +14.9 98 +15 +15 1003.9 913.8
00 19.07 Ю 2 20 км туман 4/0
[Ci sp]
+14.8 +13.9 94 +14 +19 1003.5 913.3 +12.3
03 19.07 СВ 2 н/о н/о +24.7 +15.8 58 +28 +28 душно 998.8 911.9

 

Местоположение метеостанции Петровский Завод (Забайкальский край, Россия): широта 51.32 долгота 108.80 высота над уровнем моря 806 м.

В архиве по умолчанию представлена погода в Петровском Заводе за последнюю неделю. Архивные данные за месяц целиком и за предыдущие месяцы, начиная с января 2011 года, Вы можете получить, выбрав интересующий диапазон дат из раскрывающегося списка и нажав кнопку "Ввод!".


*Определитесь, кто Вы:
робот инопланетянин человек

Внимание! Время в таблицах - всемирное. Для получения местного времени необходимо прибавить поправку, которая равна 9 ч.

Смотрите также архив погоды в соседних городах и на ближайших метеорологических станциях:

Погода в Мухоршибири (Бурятия, Россия) (77 км)
Погода в Новой Курбе (Бурятия, Россия) (83 км)
Погода в Улан-Удэ АМС (Бурятия, Россия) (91 км)
Погода в Улан-Удэ (Бурятия, Россия) (100 км)
Погода в Красном Чикое (Забайкальский край, Россия) (106 км)
Погода в Хилке (Забайкальский край, Россия) (111 км)
Погода в Хоринске (Бурятия, Россия) (113 км)
Погода в Иволгинске (Бурятия, Россия) (121 км)
Погода в Бичуре (Бурятия, Россия) (121 км)
Погода в Черемхово (Забайкальский край, Россия) (123 км)

Пояснения к столбцам:

Ветер - указаны скорость ветра в м/с - средняя за 10 мин, порывы в срок и между сроками (в фигурных скобках) и направление, откуда дует ветер: С - северный, СВ - северо-восточный, В - восточный, ЮВ - юго-восточный, Ю - южный, ЮЗ - юго-западный, З - западный, СЗ - северо-западный.
Видимость - горизонтальная дальность видимости в метрах или километрах. При видимости от 1 до 10 км при отсутствии осадков обычно наблюдается дымка, при ухудшении видимости до 1 км и менее - туман. В сухую погоду видимость может ухудшаться дымом, пылью или мглою.
Явления - указаны атмосферные явления, наблюдавшиеся в срок или в последний час перед сроком; фигурными скобками обозначены явления, наблюдавшиеся между сроками (за 1-3 часа до срока); квадратными скобками обозначены град или гололедные отложения с указанием их диаметра в мм.
Облачность - указаны через наклонную черту общая и нижняя облачность в баллах и высота нижней границы облаков в метрах; квадратными скобками обозначены формы облаков: Ci - перистые, Cs - перисто-слоистые, Cc - перисто-кучевые, Ac - высококучевые, As - высокослоистые, Sc - слоисто-кучевые, Ns - слоисто-дождевые, Cu - кучевые, Cb - кучево-дождевые. Подробнее классификацию облаков см. в Атласе облаков (PDF).
T - Температура воздуха - температура, измеренная на высоте 2 м над землей.
Td - Температура точки росы - температура, при понижении до которой содержащийся в воздухе водяной пар достигнет насыщения.
f - Относительная влажность воздуха - влажноcть воздуха, измеренная на высоте 2 м над землей.
Te - Эффективная температура - температура, которую ощущает одетый по сезону человек в тени. Характеристика душности погоды. При расчете учитывается влияние влажности воздуха и скорости ветра на теплоощущения человека.
Tes - Эффективная температура на солнце - температура, которую ощущает человек, с поправкой на солнечный нагрев. Характеристика знойности погоды. Зависит от высоты солнца над горизонтом, облачности и скорости ветра. Ночью, в пасмурную погоду, а также при ветре 12 м/с и более поправка равна нулю.
P - Атмосферное давление - приведенное к уровню моря атмосферное давление.
Po - Атмосферное давление - измеренное на уровне метеостанции атмосферное давление.
Tmin - Минимальная температура - минимум температуры воздуха на высоте 2 м над землей.
Tmax - Максимальная температура - максимум температуры воздуха на высоте 2 м над землей.
R - Количество осадков - Количество выпавших осадков за период времени, мм. При наведении курсора мыши на число - период времени, за который выпало указанное количество осадков.
R24 - Количество осадков - Количество выпавших осадков за 24 часа, мм.
S - Снежный покров - Высота снежного покрова, см. При наведении курсора мыши на число - состояние снежного покрова и степень покрытия местности в баллах.